Showing default

HYDRA-3, 69022

Orbit data source: Space-Track

HYDRA-3, 69022 is a payload satellite owned by AISTech (ES) in SSO that was launched on Sun, 03 May 2026 UTC via an FALCON 9 launch vehicle from the Air Force Western Test Range (AFWTR). Payload-class satellites include a variety of spacecraft equipped with specific instruments for various scientific and technological missions. These include communications satellites like Starlink; space stations such as the ISS; scientific satellites like the Hubble; Earth observation satellites from companies like Planet Labs, Umbra, and HawkEye 360; GPS; miniature CubeSats for education and research; and military/defense satellites.

Loading next visibility...
Identifier
69022, 2026-100AU
Orbit
SSO
Country
Flag of ESES / SPN
Related business
Manufacturer
Endurosat
Mission
Operational spacecraft
Bus & Motor
CUBESAT 6U, Unknown motor
Mass
10 kg wet, 10 kg dry
Launch date (UTC)
2026-05-03 (2 months ago)
Launch vehicle
FALCON 9
Launch site
Air Force Western Test Range (AFWTR)
Object type
Payload
Rocket body
Debris
Shape & HBR
Unknown shape, 14.5 m
Radar Cross Section
Medium (>0.1 m² and <1 m²)

Expand to show TLE details & history
Last TLE update: 20 hours ago

TLE from 20 hours ago
0 HYDRA-3
1 69022U 26100AU  26175.02047264  .00004752  00000-0  22384-3 0  9994
2 69022  97.4023  72.6611 0004251 352.2291   7.8877 15.19986483  7845
Epoch: 2026-06-24T00:29Z
TLE epoch observation values (Epoch: 2026-06-24T00:29:28.836Z)
Latitude
-0.00005°
Longitude
153.10728°
Altitude
506.073 km
Speed
7.613 km/s
True Right ascension
04h 50m 38s
True Declination
0° 00' 00"
Sunlit
Object was in daylight at epoch
Visualization orbit readout
Latitude
Unknown
Longitude
Unknown
Altitude
Unknown
Speed
Unknown
Apparent Right ascension
Unknown
Apparent Declination
Unknown
Sunlit
N/A
Visualization observer readout
Local Sidereal Time
07:27:34
Azimuth
Unknown
Elevation
Unknown
Doppler factor
Unknown
Orbital elements
Apogee altitude
505.772 km
Perigee altitude
499.922 km
Semi-major axis
6,880.984 km
Eccentricity
0.00043
Inclination
97.4023°
RAAN
72.6611°
Arg. of periapsis
352.2291°
True anomaly
7.89439°
Mean anomaly
7.8877°
Eccentric anomaly
7.89104°
Mean motion
3.80248 °/min
Orbital period
94.67 mins
BSTAR
0.00022384
Loading maneuver chart data...
Computing Atmospheric mass density...
Loading historical data...
Loading historical data...
Loading historical data...
Loading historical data...
Loading historical data...
Loading historical data...
Loading historical data...

Documentation

Showing up to 5 results
|